SES-2

Last updated on Sun Nov 16 2025 00:03:41 GMT+0000 (Coordinated Universal Time)

1 37809U 11049A 25319.39081519 -.00000189 00000+0 00000+0 0 9995 2 37809 0.0586 79.8984 0002857 157.1534 231.3960 1.00272476 51820
UTC large
Height (km)
Speed (km/s)
/
Latitude / Longitude
Inclination (degrees)
Orbital Period (minutes)
Azimuth
Elevation
Range (km)
Doppler Factor

Next 0 passes for location: London (51.5072 / 0.1276)

Sorry there are no passes over London.